Location: Ottawa
(45.4167°N, 75.7000°W)
Time: 09:35:18
(UTC-05:00)

Vanguard 2 - Visible Passes

Search period start: 22 January 2018 00:00
Search period end: 01 February 2018 00:00
Orbit: 553 x 2939 km, 32.9° (Epoch: 21 January)

Date Brightness Start Highest point End Pass type
(mag) Time Alt. Az. Time Alt. Az. Time Alt. Az.
22 Jan 11.0 02:15:17 16° ESE 02:15:17 16° ESE 02:18:09 10° ESE visible
22 Jan 9.8 04:16:43 37° SSW 04:18:56 41° SSE 04:31:37 10° ESE visible
22 Jan 10.5 06:18:17 10° WSW 06:28:40 44° S 06:43:45 10° ESE visible
23 Jan 10.7 02:32:24 20° ESE 02:32:24 20° ESE 02:36:46 10° E visible
23 Jan 9.7 04:33:49 36° SSW 04:36:46 43° S 04:49:41 10° ESE visible
23 Jan 10.6 06:36:18 10° WSW 06:46:37 41° SSW 07:01:20 10° SE visible
24 Jan 10.5 02:49:30 24° SE 02:49:30 24° SE 02:55:08 10° ESE visible
24 Jan 9.7 04:50:55 32° SW 04:54:38 43° S 05:07:38 10° ESE visible
24 Jan 10.7 06:54:26 10° WSW 07:04:33 36° SSW 07:18:40 10° SE visible
25 Jan 10.3 03:06:35 28° SE 03:06:35 28° SE 03:13:22 10° ESE visible
25 Jan 9.8 05:08:01 28° SW 05:12:33 41° S 05:25:29 10° ESE visible
26 Jan 10.0 03:23:41 32° SE 03:23:41 32° SE 03:31:29 10° ESE visible
26 Jan 10.0 05:25:06 23° WSW 05:30:29 38° S 05:43:09 10° SE visible
27 Jan 9.8 03:40:46 35° SSE 03:40:46 35° SSE 03:49:30 10° ESE visible
27 Jan 10.1 05:42:12 18° WSW 05:48:26 34° SSW 06:00:37 10° SE visible
28 Jan 9.7 03:57:53 35° S 03:57:53 35° S 04:07:23 10° ESE visible
28 Jan 10.3 05:59:19 13° WSW 06:06:24 29° SSW 06:17:46 10° SE visible
29 Jan 11.1 02:13:35 11° ESE 02:13:35 11° ESE 02:13:52 10° ESE visible
29 Jan 9.7 04:15:00 34° S 04:15:05 34° S 04:25:07 10° SE visible
29 Jan 10.5 06:16:55 10° WSW 06:24:21 24° SSW 06:34:33 10° SSE visible
30 Jan 10.9 02:30:43 13° ESE 02:30:43 13° ESE 02:31:54 10° ESE visible
30 Jan 9.7 04:32:09 30° SSW 04:33:01 30° S 04:42:39 10° SE visible
30 Jan 10.6 06:35:44 10° WSW 06:42:17 19° SSW 06:50:46 10° SSE visible
31 Jan 10.7 02:47:53 15° SE 02:47:53 15° SE 02:49:50 10° ESE visible
31 Jan 9.9 04:49:19 25° SSW 04:50:57 26° SSW 04:59:56 10° SE visible
